DECAYED
Showing default

FLOCK 4V 10, 46296 (Decayed)

Orbit data source: Space-Track

FLOCK 4V 10, 46296 was a payload satellite owned by Planet (US) in LEO that was launched on Thu, 03 Sep 2020 UTC via a VEGA launch vehicle from the French Guiana (FRGUI). Payloads include a variety of satellites, spacecraft, and rockets equipped with specific instruments for various scientific and technological missions. These include communications satellites like Starlink; space stations such as the ISS; scientific satellites like the Hubble; Earth observation satellites from companies like Planet Labs, Umbra, and HawkEye 360; GPS; miniature CubeSats for education and research; and military/defense satellites.

Not visible in the next 10 days
FLOCK 4V 10 details
Identifier
46296, 2020-061AA
Orbit
Decayed
Last TLE update3 months ago
Origin
Flag of USPlanet (US)
ManufacturerPlanet
MissionDecayed Commercial Imaging
Bus & MotorCUBESAT 3U, Unknown motor
Mass5.7 kg wet, 5.7 kg dry
Launch date (UTC)
2020-09-03 (4 years ago)
Launch vehicle
VEGA
Launch site
French Guiana (FRGUI)
Object type
Payload
Rocket body
Debris
Shape & HBRBox + 2 Pan, 0.3 m
Radar Cross Section0.108 m², Medium (>0.1 m² and < 1m²)

Expand to show TLE details & history

TLE from 3 months ago
0 FLOCK 4V 10
1 46296U 20061AA  24253.44695939  .20275665  25456-5  25261-3 0  9990
2 46296  97.3164 330.9523 0014468 271.9790  87.9858 16.48873205223110
Epoch: 2024-09-09T10:43Z
Definitive object data (Epoch: 2024-09-09T10:43:37.291Z)
Latitude0.00005°
Longitude-178.9294°
Altitude145.252 km
Speed7.819 km/s
True Right ascension22h 03m 48s
True Declination0° 00' 00"
Sunlit
Object was in full shadow at TLE epoch
Visualization observer readout
Observer readout values are unavailable because the object's trajectory could not be propagated. This is usually caused when the trajectory data is faulty or the object's orbit has decayed.
Visualization observer readout
Observer readout values are unavailable because the object's trajectory could not be propagated. This is usually caused when the trajectory data is faulty or the object's orbit has decayed.
Orbital elements
Apogee altitude148.526 km
Perigee altitude129.668 km
Semi-major axis6,517.234 km
Eccentricity0.0014468
Inclination97.3164°
RAAN330.9523°
Arg. of periapsis271.979°
True anomaly88.1515°
Mean anomaly87.9858°
Eccentric anomaly88.06865°
Mean motion4.12523 °/min
BSTAR0.00025261
Orbital period87.27 mins
Loading maneuver chart data...

FLOCK 4V 10 Visibility forecast

Observer location: undefined°, undefined

This satellite is decayed
Span
Click to sort rows by Start time (UTC) header in descending order
Start Az.
Max El. time (UTC)
Max El. Az.
Max El.
End time (UTC)
End Az.
|